Regional Weather Roundup
Issued by NWS

Home | Current Version | Previous Version | Text Only | Print | Product List | Glossary On
Versions: 1 2 3 4 5 6 7 8 9 10 11 12 13 14 15 16 17 18 19 20 21 22 23 24 25 26 27 28 29 30 31 32 33 34 35 36 37 38 39 40 41 42 43 44 45 46 47 48 49 50
000
ASUS43 KLSX 190857
RWRMO

WEATHER SUMMARY FOR MISSOURI
NATIONAL WEATHER SERVICE SPRINGFIELD MO
400 AM CDT TUE SEP 19 2017

NOTE: "FAIR" INDICATES FEW OR NO CLOUDS BELOW 12,000 FEET WITH NO
       SIGNIFICANT WEATHER AND/OR OBSTRUCTIONS TO VISIBILITY.
       CURRENT SKY AND/OR WEATHER CONDITIONS ARE NOT AVAILABLE FOR
       CHILLICOTHE AND FARMINGTON.

MOZ001>031-035>038-043-044-053-054-191000-
...NORTHERN AND WESTERN MISSOURI...

CITY           SKY/WX    TMP DP  RH WIND       PRES   REMARKS
KANSAS CTY INT MOCLDY    66  66 100 SE6       29.89F FOG
LEE`S SUMMIT   FOG       66  66 100 CALM      29.91S VSB 1/2
ST JOSEPH      CLOUDY    67  67 100 SE6       29.89F
CHILLICOTHE      N/A     62  62 100 CALM      29.92F

$$
MOZ066>068-077>081-088>096-101>105-191000-
...SOUTHWEST MISSOURI...

CITY           SKY/WX    TMP DP  RH WIND       PRES   REMARKS
SPRINGFIELD    CLEAR     66  66 100 CALM      29.93F FOG
JOPLIN         CLEAR     66  66 100 SE6       29.91F

$$
MOZ032>034-039>042-045>050-055>058-069>072-191000-
...CENTRAL MISSOURI...

CITY           SKY/WX    TMP DP  RH WIND       PRES   REMARKS
COLUMBIA       FOG       63  63 100 CALM      29.94F VSB 3/4
JEFFERSON CITY FOG       65  63  93 CALM      29.93S VSB 1/4
ROLLA          FOG       64  64 100 S3        29.95F VSB 1/2
SEDALIA        FOG       64  64 100 S5        29.94S VSB 1/2
WARRENSBURG    FOG       63  63 100 CALM      29.91S VSB 1/4

$$
MOZ051-052-059>065-191000-
...EAST CENTRAL MISSOURI...

CITY           SKY/WX    TMP DP  RH WIND       PRES   REMARKS
ST LOUIS INTL  PTCLDY    68  68 100 CALM      29.94F
SPIRIT OF STL  MOCLDY    64  64 100 SW3       29.93F FOG

$$
MOZ072>076-082>087-097>100-106>115-191000-
...SOUTH CENTRAL AND SOUTHEAST MISSOURI...

CITY           SKY/WX    TMP DP  RH WIND       PRES   REMARKS
CAPE GIRARDEAU PTCLDY    68  66  93 E3        29.92S
POPLAR BLUFF   PTCLDY    68  67  96 CALM      29.93S
WEST PLAINS    FOG       63  62  97 CALM      29.96S VSB 1/2

$$



USA.gov is the U.S. government's official web portal to all federal, state and local government web resources and services.